#timestamp,LO_Frequency,Hit,StdDev 
1544799615.2,286047003.4,N
1544799635.0,286047005.9,Y
1544799635.9,286047005.9,P
1544799655.8,286047000.3,N
1544799675.6,286047000.2,N
1544799695.5,286047000.4,N
1544799715.3,286047000.6,N
1544799735.1,286046999.8,N
1544799755.9,286047001.7,N
1544799775.7,286047002.1,N
1544799795.5,286047001.9,N
1544799815.4,286047001.5,N
1544799835.2,286047001.7,N
1544799855.1,286047003.2,N
1544799856.0,286047003.2,N
1544799875.8,286047003.1,N
1544799895.6,286047003.9,N
1544799915.5,286047003.2,N
1544799935.3,286047003.8,N
1544799955.1,286047004.2,N
1544799975.9,286047001.7,N
1544799995.7,286047001.8,N
1544800015.6,286047000.1,N
1544800035.4,286047002.7,N
1544800055.2,286046999.7,N
1544800075.1,286046998.2,N
1544800076.0,286046998.2,N
1544800095.8,286047001.1,N
1544800115.6,286047000.5,N
1544800135.5,286047000.3,N
1544800155.3,286047000.0,N
1544800175.2,286046999.9,N
1544800195.9,286047000.9,N
1544800215.7,286046998.5,N
1544800235.6,286046996.5,N
1544800255.4,286046996.8,N
1544800275.2,286046997.4,N
1544800295.1,286046997.2,N
1544800296.0,286046997.2,N
1544800315.8,286046998.0,N
1544800335.7,286046997.5,N
1544800355.5,286046998.9,N
1544800375.3,286046999.0,N
1544800395.2,286047007.3,Y
1544800415.0,286047006.7,P
1544800415.9,286047006.7,N
1544800435.8,286047005.0,N
1544800455.6,286046999.7,N
1544800475.4,286047001.1,N
1544800495.3,286046999.6,N
1544800515.1,286046997.1,N
1544800535.8,286046996.2,N
1544800555.7,286046995.7,N
1544800575.5,286046994.9,N
1544800595.4,286046996.8,N
1544800615.2,286046997.0,N
1544800635.0,286046996.8,N
1544800635.9,286046996.8,N
1544800655.8,286046996.7,N
1544800675.6,286046995.0,N
1544800695.5,286046995.3,N
1544800715.3,286046995.6,N
1544800735.1,286046995.8,N
1544800755.9,286046997.9,N
1544800775.7,286046997.9,N
1544800795.5,286046998.0,N
1544800815.4,286046997.3,N
1544800835.2,286046999.4,N
1544800855.1,286046996.8,N
1544800856.0,286046996.8,N
1544800875.8,286046996.5,N
1544800895.6,286046999.3,N
1544800915.5,286046999.4,N
1544800935.3,286046997.0,N
1544800955.1,286046996.9,N
1544800975.9,286046996.8,N
1544800995.7,286046994.9,N
1544801015.6,286046995.5,N
1544801035.4,286046996.1,N
1544801055.2,286046995.7,Y
1544801075.1,286046996.6,P
1544801076.0,286046996.6,P
1544801095.8,286046997.2,P
1544801115.7,286046997.8,Y
1544801135.5,286047002.0,P
1544801155.3,286047004.2,N
1544801175.2,286047003.9,N
1544801195.0,286047001.5,N
1544801195.9,286047001.5,N
1544801215.8,286047001.6,N
1544801235.6,286047002.5,N
1544801255.4,286047001.8,N
1544801275.3,286047001.4,N
1544801295.1,286047001.3,N
1544801315.9,286047002.0,N
1544801335.7,286047001.6,N
1544801355.5,286047001.6,N
1544801375.4,286047001.4,N
1544801395.2,286047002.0,N
1544801415.0,286047001.9,N
1544801415.9,286047001.9,N
1544801435.8,286047002.2,N
1544801455.6,286047002.2,N
1544801475.5,286047001.6,N
1544801495.3,286047002.7,N
1544801515.1,286047000.0,N
1544801535.9,286047002.6,N
1544801555.7,286047000.5,N
1544801575.5,286047000.4,N
1544801595.4,286047000.5,N
1544801615.2,286046998.1,N
1544801635.1,286047000.7,N
1544801636.0,286047011.9,Y
1544801655.8,286046996.9,P
1544801675.6,286046996.7,N
1544801695.5,286046997.0,N
1544801715.3,286046997.2,N
1544801735.2,286046994.9,N
1544801755.9,286046997.6,N
1544801775.7,286046996.5,N
1544801795.6,286046997.2,N
1544801815.4,286046999.0,N
1544801835.2,286047000.8,N
1544801855.1,286047000.5,N
1544801856.0,286047000.5,N
1544801875.8,286047000.9,N
1544801895.7,286047000.8,N
1544801915.5,286046998.4,N
1544801935.3,286046997.0,N
1544801955.2,286046997.6,N
1544801975.0,286046994.9,N
1544801975.9,286046994.9,N
1544801995.8,286046995.4,N
1544802015.6,286046996.5,N
1544802035.4,286046997.3,N
1544802055.3,286046996.2,N
1544802075.1,286046996.0,N
1544802095.8,286046994.9,N
1544802115.7,286046995.4,N
1544802135.5,286046995.6,N
1544802155.4,286046995.5,N
1544802175.2,286046996.3,N
1544802195.1,286046993.4,Y
1544802196.0,286046993.4,P
1544802215.8,286046997.2,N
1544802235.6,286046997.7,N
1544802255.5,286046997.7,N
1544802275.3,286046997.8,N
1544802295.2,286046996.9,N
1544802315.9,286046999.6,N
1544802335.7,286046996.7,N
1544802355.6,286046997.5,N
1544802375.4,286046995.7,N
1544802395.2,286046996.3,N
1544802415.1,286046996.0,N
1544802416.0,286046996.0,N
1544802435.8,286046996.1,N
1544802455.7,286046993.4,Y
1544802475.5,286046997.1,P
1544802495.3,286046996.5,P
1544802515.2,286046998.9,P
1544802535.0,286046999.0,N
1544802535.9,286046999.0,N
1544802555.8,286046998.7,N
1544802575.6,286047001.2,N
1544802595.4,286046998.6,N
1544802615.3,286046999.4,N
1544802635.1,286046998.3,N
1544802655.8,286047000.6,N
1544802675.7,286046999.3,N
1544802725.6,286046998.1,E
1544802735.5,286047001.2,N
1544802755.3,286046998.6,P
1544802775.1,286046999.9,N
1544802795.9,286047000.3,N
1544802815.7,286046999.7,N
1544802835.6,286047001.8,N
1544802855.4,286047001.7,N
1544802875.2,286047004.2,Y
1544802895.1,286047001.6,P
1544802896.0,286047001.6,N
1544802915.8,286047002.1,P
1544802935.7,286047004.0,Y
1544802955.5,286047000.5,P
1544802975.3,286047000.1,N
1544802995.2,286046999.9,N
1544803015.0,286047000.5,N
1544803015.9,286047000.5,N
1544803035.8,286047000.6,N
1544803055.6,286047000.3,N
1544803075.4,286047000.3,N
1544803095.3,286047000.6,N
1544803115.1,286047000.3,N
1544803135.8,286047000.4,N
1544803155.7,286046999.9,N
1544803175.5,286047002.8,Y
1544803195.4,286047002.6,P
